Home > Weather > St. Pölten > Past weeks

Flag for Austria Weather for the Past 2 Weeks in St. Pölten, Lower Austria, Austria

Now
43 °F

Passing clouds.


Feels Like: 39 °F
Forecast: 39 / 52 °F
Wind: 7 mph from East

Location: Tulln Airport

Current Time: Feb 7, 2016 at 1:21:26 AM

Latest Report: Feb 6, 2016 at 9:50 PM


Visibility: 9 mi

Pressure: 30.01 "Hg

Humidity: 76%

Dew point: 36 °F

Location of St. PöltenLocation

Historic Weather in St. Pölten — Graph

°F

St. Pölten Temperature Yesterday

Maximum temperature yesterday: 52 °F (at 12:50 PM)
Minimum temperature yesterday: 32 °F (at 6:50 AM)
Average temperature yesterday: 44 °F

High & Low Weather Summary for the Past Weeks

 TemperatureHumidityPressure
High59 °F (Jan 28, 11:50 AM)100% (Jan 27, 4:50 AM)30.54 "Hg (Jan 27, 4:50 AM)
Low10 °F (Jan 23, 4:50 AM)48% (Jan 28, 1:50 PM)29.74 "Hg (Feb 5, 12:20 PM)
Average43 °F80%30.23 "Hg
* Reported Jan 22 9:50 PM — Feb 6 9:50 PM, St. Pölten, Weather by CustomWeather, © 2016

Note: Actual official high and low records may vary slightly from our data, if they occured in-between our weather recording intervals... More about our weather records

Advertising

St. Pölten Weather History for the Previous 24 Hours

 ConditionsComfort  
Time TempWeatherWind HumidityBarometerVisibility
9:50 PM
Sat, Feb 6
43 °FPassing clouds.7 mph76%30.01 "Hg9 mi
8:50 PM45 °FPassing clouds.8 mph71%30.04 "Hg11 mi
7:50 PM46 °FPassing clouds.9 mph66%30.07 "Hg11 mi
6:50 PM46 °FPassing clouds.7 mph66%30.07 "Hg12 mi
5:50 PM46 °FPassing clouds.5 mph66%30.09 "Hg22 mi
4:50 PM46 °FPartly sunny.9 mph66%30.09 "Hg37 mi
3:50 PM48 °FPartly sunny.10 mph66%30.12 "Hg37 mi
2:50 PM50 °FPartly sunny.14 mph58%30.12 "Hg37 mi
1:50 PM52 °FScattered clouds.7 mph54%30.15 "Hg37 mi
12:50 PM52 °FScattered clouds.7 mph50%30.18 "Hg50 mi
11:50 AM50 °FPassing clouds.2 mph58%30.21 "Hg50 mi
10:50 AM48 °FPassing clouds.3 mph62%30.21 "Hg50 mi
9:50 AM43 °FSunny.3 mph76%30.24 "Hg50 mi
7:50 AM34 °FPassing clouds.2 mph100%30.27 "Hg37 mi
6:50 AM32 °FPassing clouds.2 mph100%30.24 "Hg37 mi
5:50 AM34 °FClear.2 mph93%30.24 "Hg16 mi
4:50 AM36 °FClear.2 mph93%30.27 "Hg16 mi
Weather by CustomWeather, © 2016

See weather overviewHow to use our weather pages